Location: Ackerson Creek
(37.8210°N, 119.8757°W)
Time: 15:08:53
(UTC+00:00)

DMSP B5D2-2 - Pass Details

Date: 13 April 2024
Orbit: 788 x 802 km, 98.3° (Epoch: 23 May)

Event Time Altitude Azimuth Distance (km) Brightness Sun altitude
Rises 12:10:50 0° 173° (S) 3,272 7.1 -14.9°
Reaches altitude 10° 12:13:10 10° 176° (S) 2,345 6.3 -14.5°
Maximum altitude 12:18:18 66° 259° (WSW) 859 4.0 -13.6°
Drops below altitude 10° 12:23:29 10° 341° (NNW) 2,357 6.6 -12.6°
Sets 12:25:50 0° 344° (NNW) 3,290 7.4 -12.2°
